Theta_e
315 315 315 315 315 315 315 315 316 316 313 312 313 313 312 313 313 305 304 307 305 298 299 299 301 298 297 295 291 294 294 295 293 287 282 286 287 292 290 292 289 285 284 283 284 282 283 309 311 304 310 315 316 315
314 314 314 314 314 314 315 315 316 313 312 311 313 312 312 313 313 310 302 309 307 302 299 301 300 302 303 300 297 297 295 294 294 287 286 287 285 288 290 286 296 289 290 287 291 294 307 309 308 313 314 310 311 313
313 313 313 313 314 314 314 315 314 312 311 311 313 312 313 313 313 309 302 304 304 299 297 295 295 302 303 304 304 296 296 298 293 295 290 286 285 289 287 289 293 296 295 293 296 299 302 304 310 311 312 312 314 316
313 313 313 313 313 313 313 314 312 311 311 313 313 313 312 312 312 311 304 306 304 300 293 295 303 300 305 309 306 303 300 299 297 294 289 284 286 292 287 290 290 293 294 291 294 298 300 302 303 309 311 313 313 317
312 312 312 312 312 313 314 312 311 311 312 313 313 313 312 312 311 306 305 307 305 300 294 296 298 299 305 306 303 302 299 296 292 289 288 287 293 291 291 288 287 295 292 287 291 295 295 297 301 306 309 309 312 313
311 311 311 311 312 313 313 311 312 312 313 313 313 312 312 311 308 306 300 306 304 304 297 292 297 298 301 305 303 300 300 299 296 291 289 290 293 290 286 280 290 292 294 293 291 296 296 298 301 308 306 308 311 313
311 311 311 312 313 312 311 311 312 312 312 311 311 311 310 309 305 303 301 303 306 304 298 293 292 297 304 302 300 300 302 299 299 296 291 290 292 290 288 279 291 293 296 297 298 297 296 302 301 305 306 309 314 315
311 311 311 312 311 310 310 311 311 311 311 311 310 309 309 308 307 303 305 308 306 301 300 292 294 294 299 293 293 300 297 298 298 297 298 292 291 293 286 289 291 295 294 296 300 301 303 306 302 303 306 308 309 311
311 311 312 311 311 311 310 311 311 310 310 310 309 308 304 302 300 303 312 311 305 302 293 294 290 290 296 293 297 299 298 292 300 298 297 294 290 287 289 291 292 292 291 294 300 301 304 302 303 302 304 308 306 308
311 311 310 310 310 310 310 311 310 309 309 309 304 302 297 302 311 311 304 299 298 298 297 292 297 294 294 293 295 298 300 295 289 297 299 294 290 291 292 292 291 292 294 300 298 297 300 300 300 301 303 306 307 308
310 310 310 310 310 310 310 310 309 308 307 301 300 301 306 312 302 303 298 295 295 290 295 296 297 295 302 295 294 297 293 293 290 294 292 291 285 291 292 292 293 293 294 298 299 299 300 300 300 302 305 307 309 308
309 310 310 310 310 310 310 309 308 304 303 307 307 306 303 299 299 296 294 296 296 292 296 295 297 299 300 304 297 297 294 294 289 300 292 288 289 292 292 293 294 294 297 298 299 300 301 301 302 305 304 306 306 307
309 309 309 309 310 310 309 308 309 308 309 307 305 301 299 298 291 291 287 290 288 295 298 299 295 298 299 300 299 297 291 290 300 293 291 288 291 295 292 294 294 296 298 298 299 301 302 302 303 303 302 304 305 304
309 309 309 310 310 309 309 308 309 307 308 305 301 290 295 293 294 293 293 293 298 303 302 301 299 298 301 295 295 292 296 298 290 288 286 289 292 295 294 295 295 297 298 299 300 301 301 301 301 301 302 303 303 303
309 309 310 309 310 309 309 309 309 304 307 303 303 293 296 302 304 306 306 306 307 307 305 301 300 301 298 295 295 295 292 286 286 284 291 293 294 296 295 296 295 295 297 299 299 300 301 302 302 302 302 302 304 303
309 308 308 309 309 309 308 308 305 308 306 303 302 298 299 300 299 302 303 304 306 302 303 302 296 294 294 293 292 291 289 285 290 293 296 297 296 297 297 298 299 298 299 298 299 301 301 301 301 302 304 303 302 303
307 307 309 309 308 308 308 304 306 305 302 299 297 302 300 300 298 300 302 302 306 302 297 298 294 291 297 293 291 293 290 295 298 300 301 297 297 297 299 298 300 299 297 297 296 296 298 301 302 301 300 303 303 303
307 308 309 308 306 306 305 305 304 302 297 298 295 296 299 300 299 300 302 304 302 300 300 294 296 288 288 287 289 294 297 300 301 300 300 300 301 302 302 298 298 299 295 295 295 295 294 295 297 298 297 301 300 301
307 308 308 309 309 306 304 304 305 298 298 299 300 300 300 298 300 302 303 304 305 305 299 295 290 288 289 294 294 296 297 297 297 298 299 301 301 301 301 300 299 298 296 295 293 292 293 294 294 296 296 298 295 297
309 308 308 310 309 306 303 301 306 302 296 298 300 299 299 297 298 298 298 300 303 298 292 291 291 293 294 297 298 298 299 299 298 296 295 297 300 300 300 299 298 297 297 295 295 296 295 293 294 294 296 296 293 292
307 307 309 308 308 306 306 300 299 300 296 296 299 299 296 298 298 294 294 295 293 290 290 292 293 295 297 299 298 297 297 297 295 294 293 292 294 292 293 293 294 294 294 294 292 293 292 290 292 294 294 295 294 295
306 309 307 308 304 308 306 307 301 301 297 296 298 298 295 295 296 293 296 292 290 291 292 293 293 294 296 296 299 298 297 294 292 294 295 294 291 291 292 292 292 293 294 293 294 292 291 290 292 294 295 294 295 294
308 307 306 308 304 300 298 307 300 300 297 298 297 294 294 294 296 298 292 294 293 297 296 296 297 296 295 296 297 296 295 293 292 292 293 292 293 292 292 292 292 291 291 291 293 293 293 293 294 293 294 297 296 295
310 307 304 303 302 296 306 301 303 300 298 295 294 291 291 292 295 291 287 291 293 296 295 295 295 295 296 295 294 295 296 296 294 295 294 293 292 291 292 292 293 293 292 292 293 293 293 293 294 293 294 294 294 293
299 298 301 292 305 301 300 300 299 297 294 295 294 291 292 294 289 288 287 290 292 293 295 297 296 298 294 295 293 293 296 295 294 292 292 294 293 292 293 293 292 292 293 293 292 293 292 293 293 293 294 293 292 292
295 302 297 305 302 302 300 297 298 296 296 295 295 295 295 293 291 288 291 294 293 295 296 297 299 296 295 294 293 291 292 295 293 292 291 293 294 293 291 290 290 291 293 293 294 294 294 293 293 294 293 293 292 293
293 301 305 308 302 301 298 299 300 299 297 294 294 294 294 293 291 292 295 296 295 297 299 300 299 297 294 293 293 294 295 294 294 293 293 293 293 294 293 291 290 292 295 296 296 295 295 294 294 294 293 293 294 294
307 300 294 297 297 297 295 295 296 295 296 297 296 293 293 294 292 295 297 299 299 300 299 298 298 296 296 294 294 294 293 294 295 294 294 293 293 293 293 294 295 295 295 296 296 296 296 295 295 296 296 295 295 296
304 299 298 295 297 296 297 297 296 297 299 298 295 293 294 297 299 298 299 300 300 299 297 295 293 296 294 294 294 294 294 293 293 291 291 290 290 292 295 295 294 294 293 294 294 295 295 297 295 294 295 294 294 295
299 301 297 297 296 294 297 299 296 298 299 298 298 296 297 297 299 300 301 300 298 298 298 297 294 294 292 293 292 292 294 295 295 295 293 291 292 294 295 295 295 295 295 295 295 296 294 294 294 293 294 293 292 293
302 300 298 297 296 297 298 298 299 300 299 298 299 297 295 296 298 300 300 300 300 298 297 295 294 293 293 292 292 292 292 294 295 296 296 295 295 296 296 296 297 298 296 296 295 295 295 294 294 294 295 295 294 293
300 299 297 295 295 298 300 298 298 297 297 297 297 297 297 296 293 297 300 301 299 297 298 297 294 294 296 296 295 295 296 296 296 297 297 296 295 295 295 295 295 297 297 297 297 296 297 296 295 294 295 295 294 294
301 300 299 298 296 296 297 298 296 296 296 295 297 297 297 297 295 300 302 304 302 300 299 299 298 297 298 299 298 299 297 297 295 293 294 294 293 292 293 294 295 297 297 297 296 296 296 296 296 296 296 296 295 294
Wind_Speed
15 14 14 14 13 13 11 10 9 11 11 9 8 4 2 2 4 3 5 3 4 1 7 5 6 3 4 4 4 4 6 6 5 5 3 2 1 1 2 4 4 2 2 4 2 1 5 22 6 7 3 4 3 4
14 14 13 13 13 12 11 11 11 14 12 9 6 4 2 1 3 3 1 3 1 3 6 1 3 2 4 2 7 5 6 3 4 5 1 1 2 3 2 2 6 1 4 4 3 4 4 7 12 12 11 3 5 5
13 13 13 13 13 12 11 10 16 16 12 9 8 5 4 2 3 3 2 3 3 3 5 5 2 3 6 4 5 7 2 5 3 3 4 2 2 1 2 1 4 7 7 2 1 7 8 10 12 14 13 14 7 7
13 13 13 13 12 11 10 12 17 15 13 10 8 6 5 3 2 3 1 3 2 2 3 6 2 6 5 13 9 7 9 7 6 4 3 3 2 1 1 1 2 2 6 6 2 6 7 3 10 13 13 14 14 9
13 12 12 12 11 9 7 16 16 13 10 9 8 6 4 2 2 1 2 2 2 5 3 4 4 3 8 13 14 11 10 7 3 3 3 2 2 1 3 2 3 1 1 1 1 2 4 9 8 13 10 10 13 9
13 12 11 11 9 5 17 15 12 10 11 10 9 7 4 1 5 3 4 3 5 3 4 1 3 6 4 12 13 9 6 4 4 4 2 2 2 3 2 1 1 2 1 3 4 4 6 13 12 4 5 8 11 9
13 10 9 9 7 16 16 11 11 10 10 10 9 7 4 3 3 3 4 3 5 2 3 3 2 2 10 6 2 2 2 2 4 3 2 3 1 2 0 3 5 4 4 5 6 4 7 4 4 5 5 7 7 6
10 7 6 11 14 14 12 11 10 11 11 10 9 7 4 2 3 3 2 2 1 3 2 1 3 3 6 3 2 2 3 3 2 3 3 3 2 1 2 5 4 5 5 6 3 5 8 6 4 7 6 6 6 7
6 7 13 14 13 12 13 12 11 11 12 10 7 4 3 3 2 2 6 4 1 4 1 1 5 5 3 3 3 4 3 2 2 3 3 4 2 3 5 3 4 7 4 7 7 7 3 7 7 7 7 8 6 8
13 15 16 14 13 12 12 12 12 11 10 9 2 2 2 1 3 3 3 3 4 2 2 2 2 3 5 2 2 4 2 3 2 4 5 2 1 3 5 5 1 7 6 4 3 2 4 6 5 5 7 6 3 6
14 14 14 13 13 12 12 11 12 12 5 1 1 2 1 3 3 0 1 2 1 1 3 5 5 2 2 5 3 3 4 3 3 4 5 2 2 4 7 7 4 5 5 3 4 3 3 3 2 3 2 4 4 9
13 13 12 12 12 12 12 12 12 2 2 3 2 3 2 2 1 1 2 1 3 5 3 4 5 5 2 4 5 1 4 2 4 3 4 3 4 8 10 8 5 3 7 7 5 4 6 7 5 3 6 7 5 12
12 11 11 12 12 12 12 11 6 8 6 0 2 3 3 1 1 3 4 4 2 3 4 2 1 4 3 4 3 4 5 5 5 2 3 5 6 9 10 9 7 5 4 3 8 10 11 11 9 5 10 8 8 10
11 10 10 11 11 10 9 7 4 6 2 1 3 1 3 3 5 5 4 4 6 4 3 3 2 3 1 3 2 3 1 3 3 5 5 4 8 11 10 9 9 10 7 6 3 4 7 8 7 6 10 8 9 11
11 10 10 9 10 10 8 7 5 3 2 2 2 3 3 4 3 3 3 3 3 4 4 4 3 3 2 1 2 3 4 2 5 5 4 5 7 12 10 7 9 7 8 6 5 4 2 2 1 4 5 6 9 10
12 10 4 12 12 11 8 1 3 2 1 1 2 4 6 2 5 5 5 4 5 1 3 4 3 3 3 3 1 2 3 4 2 2 4 7 7 7 8 7 6 6 6 8 8 7 6 5 6 5 2 3 3 5
5 2 11 13 12 9 4 2 2 2 3 3 2 2 4 3 4 4 5 5 6 3 3 3 1 2 1 3 3 1 2 1 6 5 5 6 9 7 7 6 5 4 5 6 6 7 9 11 10 6 9 9 9 7
3 6 13 13 6 3 1 0 2 2 3 2 2 3 3 2 3 2 3 3 5 2 2 2 2 6 3 2 2 1 6 7 5 3 3 5 6 6 5 7 6 6 4 4 4 2 4 7 6 2 1 2 3 2
9 8 14 10 2 2 2 1 0 3 2 0 1 2 2 4 4 4 4 3 2 2 5 3 3 2 1 3 9 6 4 3 5 3 3 6 6 6 6 4 2 2 2 2 3 2 2 4 4 3 4 4 4 4
13 11 8 4 5 1 2 1 1 2 2 2 1 3 3 4 5 4 3 3 4 1 4 3 3 3 3 4 3 3 4 5 6 5 3 2 3 5 4 4 3 3 3 1 3 1 3 5 3 2 4 4 5 4
7 3 3 2 2 2 2 3 2 3 3 1 1 2 3 4 4 5 5 4 5 3 3 2 3 3 5 3 4 4 4 5 4 5 5 2 3 4 3 1 1 3 3 3 3 5 6 2 2 3 2 2 3 3
4 11 1 3 2 2 2 3 4 4 4 3 1 1 2 2 3 3 2 6 2 1 3 3 2 2 5 5 3 4 5 4 5 4 3 4 1 0 2 1 5 6 5 5 4 3 3 3 3 4 5 1 3 3
9 4 2 4 3 0 4 3 3 4 4 3 3 2 1 1 2 2 3 2 2 2 3 2 3 4 6 3 5 3 5 6 3 3 3 3 3 3 5 4 4 6 5 2 3 4 3 2 5 4 3 4 4 4
2 3 3 4 5 4 5 5 4 4 3 3 4 4 3 2 1 3 1 2 3 1 3 3 4 3 3 3 1 2 2 3 2 3 3 5 5 3 4 4 4 4 4 4 3 3 3 3 3 4 5 5 4 3
0 3 3 5 4 3 1 3 4 4 5 5 5 3 4 3 3 2 4 3 2 3 4 3 2 2 3 1 1 1 1 5 4 2 2 5 5 4 5 4 4 3 3 5 3 5 2 3 3 4 4 4 4 5
4 6 9 6 4 4 7 4 5 5 4 3 4 5 4 4 4 4 5 5 4 4 3 5 5 4 3 3 2 0 1 4 6 6 3 5 4 6 5 5 4 2 1 5 5 4 3 3 4 5 3 3 1 2
4 6 5 5 2 0 2 2 3 3 5 4 4 5 5 5 3 3 2 3 4 4 4 4 2 7 6 4 3 3 5 5 7 5 4 5 5 5 6 5 5 3 3 5 4 4 4 4 3 3 2 2 4 4
6 2 4 2 4 2 2 1 1 1 1 2 3 3 3 3 3 4 4 4 5 5 4 1 5 6 7 6 5 5 4 5 6 6 5 4 2 4 5 3 4 7 4 4 4 3 4 4 5 5 5 4 5 4
3 2 4 1 2 3 3 3 2 2 1 3 3 2 1 1 3 3 3 4 4 5 4 4 3 5 5 4 5 5 5 5 6 7 8 5 2 4 4 4 4 4 4 4 5 6 5 3 2 3 2 3 3 3
3 3 3 2 3 2 2 3 2 0 3 3 5 4 5 4 2 3 4 4 4 5 5 6 5 7 6 6 5 4 4 5 5 7 7 7 7 5 5 5 5 5 4 5 5 5 7 4 5 2 2 3 2 3
4 2 3 3 2 2 3 2 2 3 3 4 3 6 4 3 1 2 6 6 5 5 6 7 5 6 6 6 5 5 3 2 7 8 7 5 5 5 5 2 4 6 5 7 7 6 6 5 4 5 5 5 6 5
3 3 5 4 1 2 2 2 3 3 3 3 2 3 3 3 4 3 4 5 4 4 7 8 6 6 7 6 4 5 9 5 5 6 9 5 4 4 5 4 4 5 4 4 5 5 6 6 5 6 4 7 4 4
2 3 4 4 3 2 3 0 2 2 2 4 4 6 6 7 7 6 3 6 7 6 6 7 7 6 10 12 10 9 8 7 11 11 10 9 8 5 4 3 3 5 6 6 6 5 6 8 6 6 6 6 5 3
Wind_Direction
286 286 286 284 283 281 275 274 242 175 174 204 232 191 258 343 358 60 268 222 127 198 283 33 35 46 31 64 127 243 46 7 38 59 97 293 305 175 74 234 271 298 193 189 141 217 328 344 31 56 197 266 299 351
287 286 286 284 280 274 269 263 195 169 176 205 219 180 175 89 14 52 308 306 129 136 236 267 135 132 109 164 130 22 149 107 161 97 193 65 340 325 173 25 290 90 112 261 73 81 19 9 40 17 13 357 324 19
288 288 286 284 281 273 268 253 166 167 175 202 195 184 136 119 42 62 238 289 27 53 324 36 254 252 56 95 152 115 10 138 75 159 145 165 221 351 352 88 334 336 15 47 194 13 2 23 21 21 4 12 341 19
286 287 287 285 280 276 271 181 161 167 180 194 169 163 140 109 24 16 304 283 128 115 111 283 126 91 122 79 69 90 121 68 106 70 100 132 158 63 226 189 44 224 339 335 9 347 329 43 25 2 3 0 5 359
288 285 284 280 278 270 239 153 161 176 175 168 164 152 123 100 328 273 205 300 76 122 173 274 323 113 115 104 101 104 109 105 94 73 79 124 140 14 332 77 118 343 348 9 255 292 307 281 337 335 16 348 341 341
289 282 285 279 271 233 143 151 160 163 165 155 147 130 124 16 10 42 34 350 23 61 82 1 278 131 107 118 118 121 122 105 99 117 142 124 111 115 92 305 254 89 251 237 247 301 261 280 300 322 360 336 326 320
278 286 287 284 163 139 141 143 145 159 146 138 130 129 120 37 51 103 180 234 355 54 81 337 340 251 141 108 110 107 74 125 116 132 107 128 104 138 104 184 201 215 234 282 288 298 285 229 307 5 348 316 326 5
278 272 277 141 135 131 132 131 143 145 132 128 131 139 127 4 357 30 324 285 58 81 92 158 259 85 154 151 112 139 101 61 5 129 124 114 52 320 287 254 280 309 333 278 263 298 263 266 34 9 353 330 28 18
254 178 133 126 131 133 130 137 143 133 128 130 132 108 56 45 60 247 304 339 143 121 132 27 158 214 136 161 120 39 97 73 232 146 191 118 146 225 234 99 351 307 296 279 290 297 348 70 52 13 348 355 30 4
117 122 126 127 127 128 130 135 136 130 127 127 77 83 58 301 289 328 21 33 9 316 73 225 243 242 113 116 86 105 71 158 183 229 132 210 133 79 106 124 4 326 305 305 234 64 48 61 41 5 332 320 17 36
123 124 121 123 125 127 131 135 126 112 82 43 114 82 263 312 43 49 124 147 227 290 212 231 201 183 289 141 157 172 171 173 173 225 124 184 227 175 164 114 77 17 3 23 86 81 50 68 4 297 284 356 30 51
127 121 122 125 127 132 138 144 153 63 181 295 106 113 65 53 21 151 210 265 197 229 227 182 220 191 253 116 105 226 159 134 198 129 107 207 233 151 155 151 145 67 38 82 96 44 41 30 344 106 87 66 33 57
118 123 124 125 131 143 152 146 139 333 306 74 121 104 92 127 111 188 216 263 239 222 238 170 168 137 29 50 83 143 161 200 111 152 205 210 171 158 158 156 158 175 125 64 72 55 42 19 14 74 85 60 61 76
121 121 127 133 141 144 132 154 258 336 294 236 151 87 203 193 241 207 210 201 225 219 163 120 85 117 116 75 155 138 168 74 165 189 218 194 165 170 162 165 154 179 167 153 125 88 86 68 23 45 69 66 62 56
116 119 114 123 127 123 134 185 267 319 338 319 252 234 196 325 284 282 267 284 260 169 130 98 46 76 10 92 188 122 142 206 207 219 190 158 139 142 154 164 182 191 183 188 184 186 158 212 266 10 20 66 66 65
131 124 103 125 124 131 151 191 278 273 345 315 21 348 339 299 1 0 346 4 338 127 75 67 128 116 205 155 118 34 132 210 228 206 130 122 115 121 136 145 147 152 159 186 189 184 196 224 205 196 234 294 116 151
160 80 142 130 139 148 126 8 312 22 13 18 17 357 322 11 335 334 346 11 326 39 46 34 98 83 42 70 101 86 288 63 82 67 71 105 127 135 132 139 151 132 90 124 153 154 187 205 219 187 182 215 201 192
69 134 133 136 132 126 146 18 6 45 60 16 41 323 321 289 296 339 333 341 18 51 54 68 41 34 39 79 62 23 68 73 73 88 81 106 112 118 127 138 144 140 115 98 99 71 48 55 91 85 354 114 124 120
138 146 151 153 106 174 135 141 306 107 77 141 276 261 271 277 271 267 269 271 236 127 113 72 76 75 41 62 110 130 121 113 98 67 85 104 115 130 135 128 135 115 110 107 74 117 105 98 113 108 92 75 83 70
120 138 157 40 18 28 114 106 226 139 139 202 270 294 283 275 282 285 299 132 147 136 60 57 72 143 130 180 192 161 123 119 110 100 78 87 142 148 172 176 221 247 272 334 29 79 36 25 38 87 109 118 85 40
104 124 97 1 268 203 278 151 181 145 143 173 266 26 313 332 5 8 357 2 53 71 65 115 163 224 230 165 130 109 126 127 134 145 170 180 239 179 199 198 307 209 173 108 93 96 97 84 5 67 83 92 97 136
104 157 159 201 269 237 240 204 149 160 104 171 126 107 60 6 355 348 336 30 36 211 128 136 152 99 86 115 134 136 160 125 145 146 122 126 107 356 300 205 98 83 77 112 137 124 69 62 51 55 61 47 24 30
140 143 220 201 245 191 271 118 124 179 142 188 131 153 175 184 219 40 55 313 307 34 111 112 124 114 115 121 98 99 143 135 124 173 162 111 116 139 109 99 106 108 101 103 132 114 91 103 52 93 108 74 348 10
194 192 219 209 195 232 152 195 178 153 119 167 183 131 147 189 48 65 139 258 248 79 82 113 106 68 24 68 106 197 242 95 99 114 165 122 90 67 105 109 97 103 119 130 101 101 90 93 63 64 76 78 58 47
235 266 194 262 213 200 98 219 192 163 171 175 157 133 164 130 130 162 171 248 200 152 176 154 125 120 171 228 161 178 164 153 127 61 309 127 120 84 61 69 72 110 122 89 93 99 98 95 99 108 93 70 47 19
240 218 192 213 188 205 167 193 163 180 143 179 193 138 135 151 161 187 205 190 174 168 179 159 162 201 220 210 140 34 89 116 113 85 32 118 134 127 133 117 100 346 114 123 118 115 107 100 99 109 166 166 131 58
256 249 217 237 189 224 82 58 130 159 196 175 157 157 163 181 152 203 160 159 139 194 188 223 165 144 146 144 134 114 102 106 119 145 152 104 112 131 137 150 152 212 169 129 142 153 158 153 171 180 208 207 212 196
248 169 124 316 37 28 71 107 100 28 32 352 78 43 62 47 165 192 179 179 146 157 175 131 136 127 126 129 134 121 108 116 106 98 67 49 89 124 133 141 171 161 165 188 196 198 198 204 213 222 230 235 243 247
251 170 90 119 94 45 39 30 37 15 306 55 72 61 97 69 156 119 131 145 136 131 124 104 76 113 108 126 133 142 145 137 129 146 164 184 191 267 213 178 189 210 216 212 228 220 249 252 225 229 240 235 258 277
210 138 104 59 73 68 302 122 134 105 46 113 109 46 44 39 138 136 119 131 140 180 182 156 163 137 153 159 181 212 207 175 183 170 182 199 211 214 196 184 205 222 217 243 239 241 255 260 288 335 301 272 273 315
144 107 92 87 98 178 171 156 83 86 89 90 109 121 147 158 10 176 163 174 178 165 143 156 170 162 154 173 172 143 100 233 128 109 112 117 121 114 128 169 213 213 206 219 224 223 210 219 218 242 263 203 195 177
117 168 132 108 131 212 121 150 181 139 141 107 134 125 117 100 181 255 222 151 156 165 175 167 167 194 182 171 156 135 145 140 119 119 116 114 107 97 88 62 42 42 24 326 297 207 197 208 205 197 185 187 217 214
159 93 87 100 90 151 260 137 159 200 162 190 177 175 190 169 196 225 205 180 176 177 178 177 182 172 146 140 139 137 134 134 139 127 127 131 130 109 84 73 63 45 36 27 37 64 72 69 72 77 88 91 106 97